Beaufort, NC

7:46 AM EDT on April 30, 2017 (GMT -0400)
Smith

Weather History for KMRH - February, 2014

Change the Weather History Date:

Sunday, February 2, 2014

  Actual Average Record
Temperature  
Mean Temperature 51 °F -  
Max Temperature 57 °F 57 °F 72 °F (1950)
Min Temperature 45 °F 37 °F 14 °F (1980)
Degree Days  
Heating Degree Days 14    
Growing Degree Days 1 (Base 50)    
Moisture  
Dew Point 49 °F    
Average Humidity 97    
Maximum Humidity 100    
Minimum Humidity 83    
Precipitation  
Precipitation 0.00 in - - ()
Sea Level Pressure  
Sea Level Pressure 30.11 in    
Wind  
Wind Speed 5 mph (SW)    
Max Wind Speed 13 mph    
Max Gust Speed -    
Visibility 4 miles    
Events Fog    
Averages and records for this station are not official NWS values.
T = Trace of Precipitation, MM = Missing Value Source: NWS Daily Summary

Daily Weather History Graph

Daily Weather History Graph

Search for Another Location

Airport or City:

Trip Planner

Search our weather history database for the weather conditions in past years. The results will help you decide how hot, cold, wet, or windy it might be!

Date:

Astronomy

Feb. 02, 2014 Rise Set
Actual Time 7:04 AM EST 5:36 PM EST
Civil Twilight 6:37 AM EST 6:03 PM EST
Nautical Twilight 6:07 AM EST 6:33 PM EST
Astronomical Twilight 5:37 AM EST 7:03 PM EST
Moon 8:39 AM EST (2/2) 9:07 PM EST (2/2)
Length of Visible Light 11h 25m
Length of Day
10h 32m
Waxing Crescent, 11% of the Moon is Illuminated
Feb 2
Waxing Crescent
Feb 6
First Quarter
Feb 14
Full
Feb 22
Last Quarter
Mar 1
New

Hourly Weather History & Observations

Time (EST) Temp. Windchill Dew Point Humidity Pressure Visibility Wind Dir Wind Speed Gust Speed Precip Events Conditions
12:58 AM 45.0 °F 43.5 °F 45.0 °F 100% 30.09 in 0.2 mi NW 3.5 mph - N/A Fog Fog
1:22 AM 46.0 °F - 46.0 °F 100% 30.10 in 1.2 mi Calm Calm - N/A   Overcast
1:31 AM 46.0 °F 44.8 °F 46.0 °F 100% 30.10 in 2.0 mi WSW 3.5 mph - N/A   Overcast
1:35 AM 46.0 °F 43.9 °F 46.0 °F 100% 30.10 in 1.0 mi WSW 4.6 mph - N/A   Overcast
1:43 AM 46.0 °F 43.9 °F 46.0 °F 100% 30.10 in 0.5 mi South 4.6 mph - N/A Fog Fog
1:58 AM 46.0 °F 44.8 °F 45.0 °F 96% 30.10 in 0.2 mi SW 3.5 mph - N/A Fog Fog
2:58 AM 46.0 °F 43.9 °F 45.0 °F 96% 30.10 in 0.5 mi WSW 4.6 mph - N/A Fog Fog
3:58 AM 46.0 °F 43.1 °F 46.0 °F 100% 30.11 in 0.2 mi West 5.8 mph - N/A Fog Fog
4:58 AM 46.0 °F 44.8 °F 46.0 °F 100% 30.11 in 0.2 mi WSW 3.5 mph - N/A Fog Fog
5:44 AM 46.0 °F 43.1 °F 45.0 °F 96% 30.12 in 1.2 mi SW 5.8 mph - N/A   Overcast
5:58 AM 46.9 °F - 46.9 °F 100% 30.12 in 2.0 mi SW 4.6 mph - N/A   Overcast
6:20 AM 46.9 °F - 46.9 °F 100% 30.12 in 1.5 mi SW 6.9 mph - N/A   Overcast
6:36 AM 46.9 °F - 46.9 °F 100% 30.12 in 1.0 mi SW 5.8 mph - N/A   Overcast
6:45 AM 46.9 °F - 46.9 °F 100% 30.12 in 0.5 mi WSW 4.6 mph - N/A Fog Fog
6:58 AM 46.9 °F - 46.9 °F 100% 30.12 in 0.5 mi WSW 4.6 mph - N/A Fog Fog
7:19 AM 48.0 °F - 46.9 °F 96% 30.12 in 1.2 mi West 5.8 mph - N/A   Overcast
7:40 AM 48.0 °F - 48.0 °F 100% 30.12 in 2.0 mi SW 4.6 mph - N/A   Overcast
7:58 AM 48.0 °F - 48.0 °F 100% 30.13 in 2.5 mi WSW 4.6 mph - N/A   Overcast
8:11 AM 48.0 °F - 48.0 °F 100% 30.13 in 2.5 mi West 5.8 mph - N/A   Overcast
8:30 AM 48.9 °F - 48.9 °F 100% 30.13 in 1.8 mi WSW 5.8 mph - N/A   Overcast
8:54 AM 48.2 °F - 48.2 °F 100% 30.13 in 0.8 mi SW 5.8 mph - N/A   Overcast
8:58 AM 48.9 °F - 48.9 °F 100% 30.14 in 0.2 mi WSW 5.8 mph - N/A Fog Fog
9:47 AM 48.9 °F - 48.9 °F 100% 30.14 in 1.2 mi SSW 6.9 mph - N/A   Overcast
9:58 AM 48.9 °F - 48.9 °F 100% 30.14 in 2.0 mi SSW 6.9 mph - N/A   Overcast
10:13 AM 50.0 °F - 50.0 °F 100% 30.14 in 3.0 mi SW 8.1 mph - N/A   Overcast
10:26 AM 51.1 °F - 51.1 °F 100% 30.13 in 4.0 mi SW 6.9 mph - N/A   Overcast
10:58 AM 52.0 °F - 51.1 °F 97% 30.14 in 7.0 mi SSW 9.2 mph - N/A   Mostly Cloudy
11:12 AM 53.1 °F - 51.1 °F 93% 30.14 in 7.0 mi SW 9.2 mph - N/A   Mostly Cloudy
11:43 AM 53.1 °F - 51.1 °F 93% 30.14 in 7.0 mi WSW 8.1 mph - N/A   Overcast
11:58 AM 54.0 °F - 52.0 °F 93% 30.13 in 8.0 mi SW 9.2 mph - N/A   Overcast
12:27 PM 55.9 °F - 52.0 °F 87% 30.11 in 9.0 mi SW 9.2 mph - N/A   Overcast
12:58 PM 55.9 °F - 52.0 °F 87% 30.10 in 9.0 mi SW 9.2 mph - N/A   Overcast
1:46 PM 57.0 °F - 52.0 °F 83% 30.08 in 10.0 mi SSW 11.5 mph - N/A   Partly Cloudy
1:58 PM 57.0 °F - 52.0 °F 83% 30.08 in 10.0 mi SW 12.7 mph - N/A   Partly Cloudy
2:58 PM 55.9 °F - 52.0 °F 87% 30.08 in 10.0 mi SSW 11.5 mph - N/A   Clear
3:58 PM 55.0 °F - 53.1 °F 93% 30.08 in 8.0 mi SW 10.4 mph - N/A   Clear
4:58 PM 54.0 °F - 53.1 °F 97% 30.09 in 7.0 mi SW 9.2 mph - N/A   Clear
5:58 PM 52.0 °F - 51.1 °F 97% 30.08 in 7.0 mi SSW 8.1 mph - N/A   Clear
6:58 PM 53.1 °F - 52.0 °F 96% 30.09 in 7.0 mi WSW 4.6 mph - N/A   Clear
7:58 PM 52.0 °F - 51.1 °F 97% 30.09 in 6.0 mi SW 4.6 mph - N/A   Clear
8:58 PM 52.0 °F - 52.0 °F 100% 30.09 in 6.0 mi SW 6.9 mph - N/A   Clear
9:58 PM 51.1 °F - 50.0 °F 96% 30.09 in 9.0 mi SW 4.6 mph - N/A   Clear
10:58 PM 48.9 °F - 48.9 °F 100% 30.09 in 8.0 mi SSW 4.6 mph - N/A   Clear
11:38 PM 48.0 °F - 48.0 °F 100% 30.08 in 1.2 mi Calm Calm - N/A   Clear
11:40 PM 46.9 °F - 46.9 °F 100% 30.08 in 0.5 mi Calm Calm - N/A Fog Fog
11:54 PM 48.2 °F - 48.2 °F 100% 30.07 in 1.5 mi Calm Calm - N/A   Clear
11:56 PM 48.2 °F - 48.2 °F 100% 30.07 in 3.0 mi Calm Calm - N/A   Clear
11:58 PM 48.9 °F - 48.0 °F 97% 30.07 in 4.0 mi Calm Calm - N/A   Clear